STARLINK-30247 (57644 NORAD) Tracking and Keplerian Element Data

This shows tracking and keplerian element data for the satellite.

Feedback or suggestion? Click here.




ElementValue
Catalog57644
NameSTARLINK-30247
Epoch Orbit279
Epoch Day238.91667824
Epoch Year2023
RAAN95.925
Inclination43.0012
Eccentricity0.0001134
Argument of Perigee233.6907
Mean Anonmoly191.1273
Mean Motion15.86080957
Decay Rate-0.00899321
L11 57644U 23122N 23238.91667824 -.00899321 00000+0 -38907-2 0 9999
L22 57644 43.0012 95.9250 0001134 233.6907 191.1273 15.86080957 2798



Live tracking and technical data element details for STARLINK-30247 (NORAD 57644). STARLINK-30247 can be tracked NOW for your location showing map with azimuth and elevation plus other details from your city location.







IsCatalogInMostPopularTable: catalog: 57644, numindb: 7
Update: records affected: 1



GetName: 57644 STARLINK-30247

Hit Count: updated at: Tue, 26 Sep 2023 11:29:13 GMT